Flag for Germany

Past Weather in 48°29'09"N, 7°56'52"E, Germany — Yesterday and Last 2 Weeks

Now
68 °F

Light rain. Clear.


Feels Like: 68 °F
Forecast: 82 / 58 °F
Wind: 3 mph from North

Location: Lahr - CAN-AFB
Current Time: Aug 14, 2020 at 11:33:58 am
Latest Report: Aug 14, 2020 at 10:50 am
Visibility: N/A
Pressure30.01 "Hg
Humidity: 88%
Dew Point: 64 °F
Location of 48°29'09"N, 7°56'52"ELocation

Past Weather in 48°29'09"N, 7°56'52"E — Graph

°F

48°29'09"N, 7°56'52"E Temperature Yesterday

Maximum temperature yesterday: 86 °F (at 4:50 pm)
Minimum temperature yesterday: 70 °F (at 6:50 pm)
Average temperature yesterday: 76 °F

High & Low Weather Summary for the Past Weeks

 TemperatureHumidityPressure
High97 °F (Jul 31, 4:20 pm)94% (Aug 3, 3:50 pm)30.12 "Hg (Aug 3, 3:50 pm)
Low57 °F (Aug 5, 7:50 am)18% (Jul 30, 6:20 pm)29.83 "Hg (Aug 3, 4:20 pm)
Average79 °F52%30.00 "Hg
* Reported Jul 30 10:20 am — Aug 14 10:20 am, 48°29'09"N, 7°56'52"E. Weather by CustomWeather, © 2020

Note: Actual official high and low records may vary slightly from our data, if they occured in-between our weather recording intervals... More about our weather records

48°29'09"N, 7°56'52"E Weather History for the Previous 24 Hours

Scroll right to see more
 ConditionsComfort  
Time TempWeatherWind HumidityBarometerVisibility
10:20 am
Fri, Aug 14
66 °FLight rain. Partly sunny.3 mph94%30.01 "HgN/A
9:50 am66 °FLight rain. Partly sunny.5 mph94%30.01 "Hg5 mi
9:20 am66 °FLight rain. Partly sunny.3 mph94%30.01 "Hg5 mi
8:50 am68 °FLight rain. Low clouds.6 mph88%30.01 "HgN/A
8:20 am68 °FRain. Low clouds.7 mph83%30.01 "Hg5 mi
7:50 am72 °FSunny.No wind69%29.98 "Hg10 mi
7:20 am70 °FSunny.2 mph73%29.98 "Hg10 mi
7:50 pm
Thu, Aug 13
72 °FPartly sunny.7 mph78%29.92 "HgN/A
7:20 pm72 °FPartly sunny.5 mph73%29.95 "HgN/A
6:50 pm70 °FSprinkles. Scattered clouds.18 mph73%29.98 "HgN/A
6:20 pm73 °FThundershowers. Clear.23 mph61%29.95 "HgN/A
5:50 pm84 °FPassing clouds.8 mph45%29.92 "HgN/A
5:20 pm86 °FPassing clouds.10 mph43%29.92 "HgN/A
4:50 pm86 °FPassing clouds.9 mph43%29.95 "HgN/A
4:20 pm84 °FSunny.12 mph48%29.95 "Hg10 mi
3:50 pm82 °FPassing clouds.7 mph55%29.95 "HgN/A
3:20 pm81 °FPassing clouds.8 mph58%29.95 "HgN/A
2:20 pm77 °FPassing clouds.7 mph61%29.98 "HgN/A
1:50 pm75 °FSunny.7 mph69%29.98 "Hg10 mi
1:20 pm75 °FSunny.10 mph69%29.98 "Hg10 mi
12:50 pm75 °FSunny.7 mph69%29.98 "Hg10 mi
12:20 pm73 °FSunny.8 mph78%29.98 "Hg10 mi
11:50 am73 °FPassing clouds.6 mph74%29.98 "HgN/A
11:20 am72 °FSunny.3 mph83%29.98 "Hg10 mi
Weather by CustomWeather, © 2020

See weather overview